2022-121A (53948 NORAD) Tracking and Keplerian Element Data

This shows tracking and keplerian element data for the satellite.

Feedback or suggestion? Click here.




ElementValue
Catalog53948
Name2022-121A
Epoch Orbit839
Epoch Day325.29570041
Epoch Year2022
RAAN345.1041
Inclination97.4508
Eccentricity0.00148
Argument of Perigee77.5309
Mean Anonmoly49.2754
Mean Motion15.18521184
Decay Rate5.2E-05
L11 53948U 22121A 22325.29570041 .00005200 00000+0 25455-3 0 9999
L22 53948 97.4508 345.1041 0014800 77.5309 49.2754 15.18521184 8393



Live tracking and technical data element details for 2022-121A (NORAD 53948). 2022-121A can be tracked NOW for your location showing map with azimuth and elevation plus other details from your city location.







IsCatalogInMostPopularTable: catalog: 53948, numindb: 1
Update: records affected: 1



GetName: 53948 2022-121A

Hit Count: updated at: Mon, 28 Nov 2022 05:07:57 GMT